TimeCDT,TemperatureF,Dew PointF,Humidity,Sea Level PressureIn,VisibilityMPH,Wind Direction,Wind SpeedMPH,Gust SpeedMPH,PrecipitationIn,Events,Conditions,WindDirDegrees,DateUTC
12:15 AM,59.0,53.6,82,29.96,10.0,SSE,6.9,-,N/A,,Mostly Cloudy,160,2013-07-20 05:15:00
12:35 AM,57.2,53.6,88,29.97,10.0,Calm,Calm,-,N/A,,Partly Cloudy,0,2013-07-20 05:35:00
12:55 AM,57.2,53.6,88,29.96,10.0,Calm,Calm,-,N/A,,Partly Cloudy,0,2013-07-20 05:55:00
1:15 AM,55.4,53.6,94,29.95,10.0,Calm,Calm,-,N/A,,Scattered Clouds,0,2013-07-20 06:15:00
1:35 AM,55.4,53.6,94,29.96,10.0,Calm,Calm,-,N/A,,Partly Cloudy,0,2013-07-20 06:35:00
1:55 AM,53.6,51.8,94,30.01,10.0,NW,18.4,25.3,N/A,Thunderstorm,Scattered Clouds,310,2013-07-20 06:55:00
2:15 AM,62.6,55.4,77,30.04,10.0,NW,5.8,-,N/A,,Mostly Cloudy,310,2013-07-20 07:15:00
2:35 AM,62.6,57.2,82,30.03,10.0,North,6.9,-,N/A,,Mostly Cloudy,350,2013-07-20 07:35:00
2:55 AM,60.8,57.2,88,30.00,5.0,NNE,10.4,18.4,0.02,Rain,Light Rain,30,2013-07-20 07:55:00
3:15 AM,59.0,57.2,94,29.96,10.0,East,6.9,-,N/A,,Overcast,100,2013-07-20 08:15:00
3:35 AM,59.0,57.2,94,29.98,10.0,SE,4.6,-,N/A,,Overcast,140,2013-07-20 08:35:00
3:55 AM,59.0,57.2,94,29.98,10.0,WSW,4.6,-,N/A,,Mostly Cloudy,240,2013-07-20 08:55:00
4:15 AM,57.2,55.4,94,29.98,10.0,West,4.6,-,N/A,,Mostly Cloudy,260,2013-07-20 09:15:00
4:35 AM,59.0,55.4,88,29.99,10.0,Calm,Calm,-,N/A,,Overcast,0,2013-07-20 09:35:00
4:55 AM,57.2,55.4,94,30.00,10.0,Calm,Calm,-,N/A,,Mostly Cloudy,0,2013-07-20 09:55:00
5:15 AM,57.2,55.4,94,30.01,10.0,NNE,3.5,-,N/A,,Scattered Clouds,30,2013-07-20 10:15:00
5:35 AM,55.4,55.4,100,29.99,10.0,ESE,3.5,-,N/A,,Partly Cloudy,110,2013-07-20 10:35:00
5:55 AM,55.4,53.6,94,29.97,10.0,SE,5.8,-,N/A,,Mostly Cloudy,140,2013-07-20 10:55:00
6:15 AM,53.6,53.6,100,29.99,10.0,Calm,Calm,-,N/A,,Mostly Cloudy,0,2013-07-20 11:15:00
6:35 AM,55.4,55.4,100,30.00,10.0,Calm,Calm,-,N/A,,Overcast,0,2013-07-20 11:35:00
6:55 AM,55.4,55.4,100,30.01,10.0,East,3.5,-,N/A,,Overcast,80,2013-07-20 11:55:00
7:15 AM,57.2,55.4,94,30.01,10.0,ENE,3.5,-,N/A,,Mostly Cloudy,70,2013-07-20 12:15:00
7:35 AM,57.2,55.4,94,30.01,10.0,Calm,Calm,-,N/A,,Scattered Clouds,0,2013-07-20 12:35:00
7:55 AM,59.0,57.2,94,30.02,10.0,Calm,Calm,-,N/A,,Mostly Cloudy,0,2013-07-20 12:55:00
8:15 AM,60.8,57.2,88,30.03,10.0,ENE,4.6,-,N/A,,Scattered Clouds,60,2013-07-20 13:15:00
8:35 AM,60.8,59.0,94,30.03,10.0,NE,5.8,-,N/A,,Mostly Cloudy,50,2013-07-20 13:35:00
8:55 AM,59.0,57.2,94,30.03,10.0,ENE,10.4,17.3,N/A,,Overcast,70,2013-07-20 13:55:00
9:15 AM,59.0,57.2,94,30.03,10.0,East,10.4,-,N/A,,Overcast,80,2013-07-20 14:15:00
9:35 AM,59.0,55.4,88,30.04,10.0,East,11.5,-,N/A,,Overcast,80,2013-07-20 14:35:00
9:55 AM,59.0,55.4,88,30.04,10.0,East,9.2,-,N/A,,Overcast,80,2013-07-20 14:55:00
10:15 AM,59.0,57.2,94,30.03,10.0,East,9.2,17.3,N/A,,Overcast,90,2013-07-20 15:15:00
10:35 AM,60.8,57.2,88,30.03,10.0,ENE,10.4,-,N/A,,Overcast,70,2013-07-20 15:35:00
10:55 AM,62.6,57.2,82,30.04,10.0,East,9.2,-,N/A,,Overcast,90,2013-07-20 15:55:00
11:15 AM,64.4,57.2,77,30.03,10.0,ENE,11.5,-,N/A,,Overcast,70,2013-07-20 16:15:00
11:35 AM,64.4,57.2,77,30.04,10.0,East,5.8,-,N/A,,Mostly Cloudy,80,2013-07-20 16:35:00
11:55 AM,64.4,55.4,73,30.04,10.0,East,5.8,-,N/A,,Overcast,90,2013-07-20 16:55:00
12:15 PM,64.4,55.4,73,30.05,10.0,East,4.6,-,N/A,,Mostly Cloudy,80,2013-07-20 17:15:00
12:35 PM,64.4,55.4,73,30.04,10.0,ENE,5.8,-,N/A,,Mostly Cloudy,70,2013-07-20 17:35:00
12:55 PM,64.4,55.4,73,30.03,10.0,ENE,8.1,-,N/A,,Scattered Clouds,70,2013-07-20 17:55:00
1:15 PM,64.4,55.4,73,30.03,10.0,East,5.8,-,N/A,,Partly Cloudy,100,2013-07-20 18:15:00
1:35 PM,64.4,55.4,73,30.03,10.0,East,6.9,-,N/A,,Clear,80,2013-07-20 18:35:00
1:55 PM,64.4,55.4,73,30.03,10.0,East,6.9,-,N/A,,Partly Cloudy,100,2013-07-20 18:55:00
2:15 PM,64.4,55.4,73,30.03,10.0,East,5.8,-,N/A,,Partly Cloudy,90,2013-07-20 19:15:00
2:35 PM,66.2,57.2,73,30.02,10.0,ESE,5.8,-,N/A,,Partly Cloudy,110,2013-07-20 19:35:00
2:55 PM,68.0,55.4,64,30.01,10.0,SE,6.9,-,N/A,,Partly Cloudy,130,2013-07-20 19:55:00
3:15 PM,69.8,55.4,60,30.00,10.0,East,10.4,20.7,N/A,,Partly Cloudy,90,2013-07-20 20:15:00
3:35 PM,69.8,55.4,60,30.00,10.0,East,10.4,16.1,N/A,,Scattered Clouds,80,2013-07-20 20:35:00
3:55 PM,69.8,55.4,60,29.99,10.0,ENE,9.2,-,N/A,,Partly Cloudy,70,2013-07-20 20:55:00
4:15 PM,71.6,55.4,57,29.99,10.0,ENE,10.4,-,N/A,,Partly Cloudy,70,2013-07-20 21:15:00
4:35 PM,71.6,55.4,57,29.99,10.0,East,8.1,-,N/A,,Clear,80,2013-07-20 21:35:00
4:55 PM,71.6,55.4,57,29.99,10.0,East,5.8,-,N/A,,Clear,100,2013-07-20 21:55:00
5:15 PM,73.4,55.4,53,29.99,10.0,ESE,8.1,-,N/A,,Clear,110,2013-07-20 22:15:00
5:35 PM,71.6,55.4,57,29.99,10.0,ENE,8.1,-,N/A,,Partly Cloudy,70,2013-07-20 22:35:00
5:55 PM,71.6,55.4,57,29.98,10.0,NE,4.6,-,N/A,,Partly Cloudy,50,2013-07-20 22:55:00
6:15 PM,71.6,55.4,57,29.97,10.0,ESE,8.1,-,N/A,,Clear,110,2013-07-20 23:15:00
6:35 PM,71.6,55.4,57,29.97,10.0,ESE,5.8,-,N/A,,Partly Cloudy,120,2013-07-20 23:35:00
6:55 PM,71.6,55.4,57,29.96,10.0,SE,8.1,-,N/A,,Scattered Clouds,130,2013-07-20 23:55:00
7:15 PM,71.6,55.4,57,29.97,10.0,East,8.1,-,N/A,,Mostly Cloudy,100,2013-07-21 00:15:00
7:35 PM,69.8,55.4,60,29.96,10.0,ESE,9.2,-,N/A,,Scattered Clouds,110,2013-07-21 00:35:00
7:55 PM,68.0,55.4,64,29.96,10.0,ESE,6.9,-,N/A,,Clear,120,2013-07-21 00:55:00
8:15 PM,68.0,55.4,64,29.96,10.0,East,5.8,-,N/A,,Clear,100,2013-07-21 01:15:00
8:35 PM,68.0,55.4,64,29.95,10.0,East,4.6,-,N/A,,Clear,100,2013-07-21 01:35:00
8:55 PM,64.4,55.4,73,29.95,10.0,ESE,4.6,-,N/A,,Clear,110,2013-07-21 01:55:00
9:15 PM,64.4,57.2,77,29.96,10.0,East,3.5,-,N/A,,Clear,100,2013-07-21 02:15:00
9:35 PM,62.6,57.2,82,29.96,10.0,East,4.6,-,N/A,,Clear,100,2013-07-21 02:35:00
9:55 PM,62.6,55.4,77,29.96,10.0,ESE,3.5,-,N/A,,Partly Cloudy,110,2013-07-21 02:55:00
10:15 PM,59.0,55.4,88,29.97,10.0,Calm,Calm,-,N/A,,Mostly Cloudy,0,2013-07-21 03:15:00
10:35 PM,57.2,55.4,94,29.96,10.0,East,4.6,-,N/A,,Partly Cloudy,90,2013-07-21 03:35:00
10:55 PM,59.0,55.4,88,29.96,10.0,ESE,4.6,-,N/A,,Clear,110,2013-07-21 03:55:00
11:15 PM,59.0,55.4,88,29.96,10.0,ESE,3.5,-,N/A,,Partly Cloudy,120,2013-07-21 04:15:00
11:35 PM,55.4,53.6,94,29.95,10.0,Calm,Calm,-,N/A,,Clear,0,2013-07-21 04:35:00
11:55 PM,55.4,53.6,94,29.95,10.0,Calm,Calm,-,N/A,,Partly Cloudy,0,2013-07-21 04:55:00